(44) Nysa
ephemeris date magn radius delta ra dec elong phase
Today27 Sep 202211.42.216 AU3.215 AU12h02m+01°48'4.2°1.9°
Opposition21 May 202310.32.589 AU1.580 AU16h00m-14°42'174.2°2.3°
(44) Nysa - 2022-09-27
astro.vanbuitenen.nl


 
-1 year
-1 month
-1 day
Now
+1 day
+1 month
+1 year

The interactive orbit chart above shows the body's path through the solar system and its position at the given date. Green and blue lines are shown perpendicular to the ecliptic plane: Green if the path is above the ecliptic plane, blue if it is below. (Left-click and drag to rotate the view; Right-click and drag to move the view; Use scroll wheel to zoom in our out.)

The orbital elements of Nysa are:

            e (Eccentricity)                : 0.1488716
            a (Semimajor axis)              : 2.4227603
            i (Inclination)                 : 3.71170
            Ω (Longitude of ascending node) : 131.49831
            ω (Argument of perihelion)      : 344.19501
            M (Mean anomaly)                : 342.98601
            Epoch                           : 2022 Jan 21

            L (Longitude of perihelion)     : 115.72482
            B (Latitude of perihelion)      : -1.01028
            P (Orbital period in years)     : 3.77            
        

The light curve chart below shows the estimated development of the minor planet's magnitude.


The all-sky chart below shows the path of the minor planet over the same period as the light curve. The current position is marked yellow.





The following chart shows the path of the minor planet in the next few days. The field of view is optimized for (~10x50) binoculars and finderscopes. A more printer-friendly version of the same chart can be found below.




Ephemerides:
Date       Time       RA (2000)    DEC (2000)    delta   radius  elong  phase   PA    magn
2022-09-27 00:00 UT   12 02 02.0   +01 48 16     3.215    2.216    4.2    1.9   319   11.4 
2022-09-27 02:46 UT   12 02 15.2   +01 46 55     3.215    2.216    4.3    1.9   319   11.4 
2022-09-28 00:00 UT   12 03 56.8   +01 36 31     3.215    2.218    4.7    2.1   317   11.5 
2022-09-29 00:00 UT   12 05 51.4   +01 24 46     3.215    2.219    5.1    2.3   315   11.5 
2022-09-30 00:00 UT   12 07 46.0   +01 13 03     3.215    2.221    5.5    2.5   313   11.5 
2022-10-01 00:00 UT   12 09 40.5   +01 01 20     3.216    2.222    6.0    2.7   312   11.5 
2022-10-02 00:00 UT   12 11 34.8   +00 49 38     3.215    2.224    6.4    2.9   311   11.5 
2022-10-03 00:00 UT   12 13 29.0   +00 37 57     3.215    2.225    6.9    3.1   310   11.5 
2022-10-04 00:00 UT   12 15 23.1   +00 26 18     3.215    2.227    7.3    3.3   309   11.5 
2022-10-05 00:00 UT   12 17 17.1   +00 14 40     3.215    2.228    7.8    3.5   308   11.6 
2022-10-06 00:00 UT   12 19 11.0   +00 03 02     3.214    2.230    8.3    3.7   307   11.6 
2022-10-07 00:00 UT   12 21 04.8   +00 08 33     3.214    2.231    8.7    3.9   306   11.6 
2022-10-08 00:00 UT   12 22 58.5   +00 20 08     3.213    2.233    9.2    4.1   306   11.6 
2022-10-09 00:00 UT   12 24 52.1   +00 31 41     3.213    2.234    9.7    4.3   305   11.6 
2022-10-10 00:00 UT   12 26 45.6   +00 43 12     3.212    2.236   10.1    4.5   305   11.6 
2022-10-11 00:00 UT   12 28 39.0   +00 54 42     3.211    2.237   10.6    4.7   304   11.6 
2022-10-12 00:00 UT   12 30 32.3   -01 06 11     3.210    2.239   11.1    4.9   304   11.6 
2022-10-13 00:00 UT   12 32 25.5   -01 17 37     3.209    2.240   11.5    5.1   303   11.6 


    Terminology:
            
    delta:  distance between minor planet and earth in AU
    radius: distance between minor planet and sun in AU
    magn:   magnitude (brightness) estimate    
    ra:     right ascension in hours (24h = 360deg)
    dec:    declination in degrees
    elong:  elongation in degrees (angle sun-earth-minor planet)    
    phase:  phase angle in degrees (angle sun-minor planet-earth)        
    AU:     Astronomical Unit (mean distance between earth and sun: 149597870.7 km
    

Orbital elements provided by the MPC (Minor Planet Center).
Calculations by a modified version of AAPlus, a C# implementation of the AA+ project by PJ Naughter from the algorithms presented in the book "Astronomical Algorithms" by Jean Meeus.
NGC2000 dso catalog and star labels from VizieR as provided by the Strasbourg astronomical Data Center.
Tycho2 catalog from the ESO archive.